Wind_Speed
32 31 32 32 32 31 28 26 24 24 24 24 24 23 21 21 20 19 18 17 16 16 15 14 14 13 13 13 12 12 11 11 11 10 9 9 10 10 10 10 10 10 11 11 11 11 12 12 12
34 34 34 34 34 31 28 26 25 25 26 26 25 24 23 23 21 20 19 18 18 17 16 15 15 15 14 14 14 14 13 13 13 12 12 11 12 12 12 12 12 12 12 12 13 13 13 13 14
36 36 36 36 34 31 29 27 27 27 27 27 26 25 25 24 23 21 20 19 19 18 18 17 17 16 16 15 15 15 15 15 15 14 14 14 14 14 14 14 14 14 14 14 14 15 15 15 16
37 38 38 37 34 32 30 29 29 28 28 27 27 26 25 25 24 23 22 21 21 20 19 18 18 18 17 17 17 16 16 16 16 16 15 15 16 16 16 16 16 16 16 16 16 17 17 17 17
39 40 39 38 35 33 32 31 30 30 29 28 27 26 26 25 25 24 23 23 22 21 21 20 19 19 19 19 19 18 18 18 17 17 17 17 17 17 17 18 18 18 18 18 18 18 18 18 18
40 41 41 38 35 34 34 33 32 31 31 30 28 27 26 26 26 25 24 24 23 23 22 22 21 20 20 20 20 20 19 19 19 19 19 19 19 19 19 19 19 19 19 19 20 20 19 19 20
41 41 41 39 37 36 35 35 34 33 32 32 30 29 28 27 27 26 26 26 25 25 24 23 23 22 22 22 21 21 21 20 20 20 20 20 20 20 20 20 21 21 21 21 21 21 21 21 21
42 42 42 40 38 36 36 36 35 35 34 33 32 31 29 29 29 28 28 27 27 26 26 25 25 24 24 23 23 22 22 22 22 21 21 21 22 22 22 22 22 22 23 23 23 23 23 23 23
44 44 42 40 38 37 37 37 37 36 36 35 34 32 31 31 30 30 30 29 29 28 28 27 26 26 26 25 25 24 24 24 23 23 23 23 23 23 23 23 23 23 23 24 24 24 25 25 25
45 45 41 39 39 39 39 39 38 38 37 36 35 34 33 33 32 31 31 31 30 30 29 28 28 27 27 26 26 25 25 25 25 25 24 24 24 24 24 24 24 24 24 24 25 25 26 26 27
45 44 41 40 40 41 41 40 40 39 39 38 37 36 35 34 33 33 32 32 32 31 30 29 29 28 27 27 26 26 26 26 26 25 26 26 26 25 25 25 26 26 26 27 27 27 28 28 29
45 43 42 41 42 42 42 42 42 41 39 39 38 38 37 36 35 34 34 33 33 32 31 30 30 29 28 28 27 27 26 26 26 26 26 27 27 27 27 27 28 28 29 29 29 30 30 30 31
46 44 43 43 44 43 43 43 43 42 41 40 39 38 37 36 36 36 35 34 33 33 32 31 30 30 29 29 28 28 28 27 27 28 28 28 28 28 29 29 30 30 30 31 31 31 32 32 32
46 45 45 44 44 44 44 44 43 42 42 42 41 39 39 38 37 37 36 35 34 34 33 33 32 31 30 30 30 29 29 29 29 29 29 29 29 29 30 30 31 31 32 32 33 33 33 33 34
47 47 46 45 44 44 45 45 43 42 43 42 41 41 40 39 38 38 37 37 36 36 35 34 33 32 31 31 31 30 30 29 29 30 30 30 30 30 31 31 32 32 33 33 34 34 35 35 35
48 49 47 45 45 45 46 45 42 43 43 43 43 42 41 40 39 39 38 38 37 37 36 35 35 33 33 32 32 31 31 30 30 30 30 30 30 31 32 32 32 33 33 34 35 35 35 36 36
51 50 48 47 47 46 46 45 43 43 44 43 43 43 42 41 40 39 39 38 38 38 37 36 36 35 34 33 33 32 32 32 31 31 31 31 31 32 32 33 33 34 34 35 35 36 36 37 38
50 49 48 47 47 47 47 45 43 44 44 44 43 43 42 40 40 40 39 39 39 39 38 37 37 37 36 35 34 34 33 33 33 32 32 32 33 33 34 34 35 35 35 36 36 37 38 38 39
49 49 49 48 48 48 48 46 45 44 44 44 44 43 41 40 41 41 40 40 40 39 39 38 38 38 37 37 36 36 35 35 34 34 34 34 35 35 35 35 36 36 37 37 38 38 39 39 40
49 50 50 50 49 49 49 48 46 46 45 45 44 43 42 41 41 41 41 40 40 40 39 39 39 38 38 38 38 38 37 37 37 37 37 37 37 37 37 37 37 38 38 38 39 40 40 41 41
48 48 48 49 49 50 50 50 48 47 46 45 45 44 43 42 42 42 42 41 41 40 40 40 40 40 40 39 39 39 39 39 39 39 39 39 39 39 39 39 39 39 40 40 40 41 41 42 42
48 47 47 48 49 50 50 50 49 48 47 46 45 44 44 43 43 43 42 42 41 41 41 41 41 41 41 41 40 40 40 40 40 40 40 40 40 40 40 40 40 40 41 41 41 42 42 43 43
47 46 46 47 49 50 51 51 49 48 47 45 45 45 44 44 43 43 43 42 42 42 42 42 42 42 42 41 41 41 41 41 41 40 41 41 41 41 41 41 42 42 42 42 42 43 44 44 44
46 46 46 47 48 51 50 51 50 48 47 46 46 45 45 44 44 43 43 43 43 43 44 43 43 42 42 41 42 41 41 41 41 41 41 42 42 42 42 43 43 44 44 44 44 44 44 44 45
46 46 46 47 49 50 49 51 50 48 48 47 47 46 46 45 45 44 43 44 44 44 44 43 43 43 42 42 42 42 42 42 42 42 42 43 43 43 43 44 45 45 45 45 46 45 45 45 46
44 45 45 46 47 47 47 49 49 48 47 47 47 46 46 46 45 45 44 44 44 44 44 44 44 43 43 43 43 43 43 43 44 44 44 44 44 44 44 45 46 46 46 46 46 46 46 47 47
43 43 43 43 46 46 46 46 46 46 45 45 46 46 46 46 45 45 44 44 45 45 45 45 45 45 44 44 45 44 44 45 45 45 44 44 45 45 46 46 47 47 47 46 46 46 47 47 48
42 41 42 43 44 46 46 45 44 43 42 43 43 44 45 45 46 45 45 44 45 45 45 45 45 45 45 45 45 46 45 46 46 45 46 46 46 47 47 47 47 47 47 47 47 47 47 47 47
41 41 42 42 43 44 45 44 42 42 41 41 41 42 42 43 44 44 45 44 45 45 45 45 45 45 46 46 46 46 46 46 46 46 46 47 47 48 47 48 47 47 47 47 47 47 47 47 47
40 40 40 41 41 42 42 43 41 40 40 40 40 41 41 41 42 43 44 44 44 45 45 45 45 46 46 46 46 46 46 46 46 47 47 48 48 47 47 47 47 47 47 47 47 47 47 48 48
Wind_Direction
232 232 232 233 234 235 236 236 235 235 236 237 238 239 239 240 241 242 242 242 243 243 241 240 241 241 243 245 245 246 247 246 246 246 247 247 250 252 256 260 265 267 268 269 273 276 279 280 281
232 232 233 233 235 236 236 236 236 236 236 237 238 238 238 239 240 241 241 241 241 240 240 241 242 243 245 247 248 248 249 249 250 251 251 250 251 254 257 260 263 266 268 269 271 274 276 277 280
232 232 234 235 235 237 237 236 236 236 236 237 238 239 239 240 241 240 240 239 239 240 240 241 243 245 246 248 250 250 250 251 252 254 254 252 252 255 259 262 263 266 268 269 270 272 274 276 278
234 233 234 235 235 236 236 235 235 236 236 237 239 240 240 240 240 240 239 238 238 239 240 242 245 247 248 249 251 252 252 253 254 254 255 255 255 257 259 261 264 266 268 269 270 271 273 275 277
234 234 235 235 235 236 236 236 235 236 236 236 237 239 239 239 239 239 239 238 239 240 242 244 246 248 249 250 250 252 253 253 254 255 256 257 258 259 260 262 264 265 267 268 269 271 272 273 275
235 236 236 236 235 235 236 236 235 236 236 236 236 237 237 238 238 239 239 239 240 242 243 245 247 248 250 250 251 252 253 254 254 256 257 258 259 261 261 262 264 266 267 268 268 269 271 273 274
236 236 236 236 235 235 236 236 235 235 235 235 236 236 237 238 239 239 240 240 241 243 245 246 247 248 250 251 252 253 254 254 255 256 257 259 260 261 262 263 265 266 267 267 268 269 271 272 273
236 236 236 235 234 234 235 236 236 235 235 236 236 236 236 238 239 240 241 242 243 244 245 246 247 249 250 251 252 253 254 254 255 256 258 259 260 261 262 263 265 267 268 269 269 270 272 273 274
235 236 236 235 234 234 234 235 235 235 235 236 236 236 236 237 239 240 241 242 244 244 245 246 247 248 249 250 252 253 254 255 255 255 256 257 258 260 262 264 266 268 269 270 271 272 273 274 275
234 235 235 235 234 233 233 234 234 234 235 236 236 236 237 237 238 240 241 242 243 244 244 245 246 247 248 250 251 252 253 254 255 255 255 257 258 260 262 264 265 268 269 270 272 273 275 275 276
235 236 235 235 234 233 232 233 234 234 234 235 236 237 237 237 238 240 241 243 243 243 244 244 246 246 248 250 251 252 252 253 254 255 256 257 259 261 263 264 266 268 270 271 272 274 275 276 277
236 235 235 234 234 233 233 232 233 234 235 235 236 237 237 238 239 239 240 242 243 243 244 245 246 247 248 249 250 251 252 253 254 255 257 258 260 262 264 265 267 268 270 271 273 274 276 277 278
236 235 234 234 234 234 233 233 233 234 235 236 236 237 237 237 238 239 239 241 242 243 244 245 246 247 248 248 249 250 252 253 254 256 258 259 261 263 265 266 268 269 271 272 273 275 276 277 278
236 235 235 235 234 234 234 233 233 234 235 236 237 237 237 237 238 239 239 240 242 242 243 245 245 246 247 248 249 251 252 254 256 257 259 261 262 264 265 267 269 270 271 273 274 275 276 277 278
234 234 234 234 234 235 234 233 233 234 235 236 237 238 238 238 238 239 239 240 241 242 243 244 245 246 247 248 249 251 253 255 256 258 260 262 263 265 266 268 269 270 272 273 274 275 277 277 278
233 234 233 233 234 234 235 234 234 235 235 236 237 238 238 238 238 238 239 240 241 242 243 244 245 245 246 248 250 251 253 255 256 258 260 261 264 266 268 269 270 271 272 273 274 275 276 278 279
232 233 234 234 234 235 236 235 234 236 236 236 237 238 239 238 238 238 239 239 240 241 242 243 244 245 246 248 250 252 253 254 256 258 260 262 264 267 269 271 272 273 274 275 275 276 277 278 279
234 234 234 235 235 235 236 236 235 235 236 236 237 238 239 239 238 238 238 238 239 241 242 243 244 245 246 248 250 251 253 255 256 258 261 263 265 267 270 272 273 274 275 275 276 277 277 278 279
235 235 234 235 235 235 235 235 235 235 236 236 237 238 239 238 238 238 238 239 240 242 243 244 245 246 247 248 250 251 253 255 258 260 262 263 265 268 270 272 273 274 275 276 277 278 279 279 279
234 234 234 235 235 236 235 235 234 235 236 236 237 237 238 238 238 239 239 240 241 242 243 244 245 246 248 249 250 251 253 256 258 261 262 264 266 268 269 271 273 274 275 276 277 278 279 280 280
234 235 235 236 236 236 236 235 234 235 236 236 237 238 238 238 239 239 240 240 241 241 242 244 245 247 248 249 250 252 254 256 258 261 263 265 266 268 270 271 272 274 275 276 277 278 279 280 281
233 234 236 236 236 236 236 237 233 234 236 236 237 238 238 239 239 240 241 241 241 242 242 244 246 247 249 250 251 253 255 257 259 261 263 265 267 268 270 271 272 274 275 276 277 279 280 280 281
232 234 236 237 237 238 237 238 234 234 235 236 237 237 238 239 240 240 241 241 242 243 244 245 246 247 249 250 251 253 255 257 260 262 264 265 267 268 270 271 273 274 275 276 278 279 280 281 281
232 233 235 237 238 239 238 240 238 236 236 236 237 238 238 238 240 241 241 242 243 244 245 245 246 247 249 250 252 254 256 258 261 263 265 266 268 269 270 272 273 274 275 276 277 279 280 280 281
231 232 234 236 237 239 239 240 240 238 238 237 237 238 238 239 240 241 242 243 244 244 245 246 246 248 249 251 253 255 257 259 262 264 265 267 268 269 271 272 274 275 275 276 277 278 279 279 281
231 233 235 238 240 240 240 240 240 240 239 239 238 238 239 240 241 242 242 243 244 245 246 246 247 249 250 252 254 256 258 260 263 265 266 268 269 270 272 273 274 275 276 277 277 278 279 280 281
230 232 234 238 240 241 241 241 240 240 241 240 240 240 240 240 240 241 242 243 244 245 246 248 249 250 251 253 255 257 259 261 263 265 266 268 270 271 272 273 275 275 276 277 277 278 279 280 281
231 233 234 236 239 241 242 242 242 241 242 242 242 241 241 241 240 241 242 243 244 245 246 248 249 251 252 254 256 257 259 261 263 265 267 269 270 272 273 274 275 275 275 276 277 278 279 281 282
230 232 234 236 239 242 243 243 242 243 242 243 242 241 240 240 240 241 242 243 244 245 247 249 250 251 253 255 257 258 260 261 263 265 267 269 271 272 273 274 274 274 275 276 277 278 279 280 281
232 233 235 236 239 241 244 244 243 244 243 243 243 242 242 241 241 240 241 242 243 245 247 248 250 252 253 254 256 258 260 262 264 265 267 269 271 272 272 273 274 274 275 276 276 277 279 280 281
Height
5799 5802 5805 5807 5810 5813 5816 5821 5824 5826 5828 5830 5832 5835 5837 5840 5843 5847 5847 5847 5848 5850 5852 5853 5854 5856 5857 5859 5860 5862 5863 5864 5866 5866 5867 5868 5869 5870 5871 5872 5872 5873 5874 5874 5875 5875 5876 5876 5876
5794 5797 5800 5802 5805 5808 5813 5817 5820 5822 5824 5826 5829 5831 5834 5836 5838 5841 5842 5844 5845 5847 5849 5850 5852 5853 5855 5856 5858 5859 5861 5862 5863 5864 5865 5866 5867 5868 5869 5870 5870 5871 5872 5872 5873 5873 5873 5874 5874
5788 5791 5795 5797 5800 5805 5810 5813 5816 5817 5820 5822 5825 5827 5830 5832 5835 5837 5839 5841 5843 5844 5846 5848 5849 5851 5852 5854 5855 5857 5858 5859 5861 5862 5863 5864 5865 5866 5867 5867 5868 5869 5869 5870 5870 5871 5871 5871 5871
5782 5785 5788 5792 5796 5801 5805 5808 5810 5813 5815 5818 5821 5824 5826 5829 5831 5834 5836 5838 5839 5841 5843 5845 5846 5848 5849 5851 5852 5854 5855 5856 5858 5859 5860 5861 5862 5863 5864 5864 5865 5866 5866 5867 5867 5868 5868 5868 5868
5776 5779 5782 5787 5792 5796 5799 5802 5805 5808 5811 5814 5817 5820 5822 5825 5827 5830 5832 5834 5836 5838 5839 5841 5843 5845 5846 5848 5849 5851 5852 5853 5854 5856 5857 5858 5859 5860 5860 5861 5862 5862 5863 5864 5864 5865 5865 5865 5865
5769 5773 5777 5782 5787 5791 5794 5797 5800 5803 5806 5809 5813 5815 5818 5821 5823 5826 5828 5830 5832 5834 5836 5837 5839 5841 5843 5844 5846 5847 5848 5850 5851 5852 5853 5854 5855 5856 5857 5858 5858 5859 5859 5860 5861 5861 5861 5862 5862
5763 5767 5770 5776 5781 5785 5789 5791 5795 5798 5801 5804 5808 5811 5814 5816 5819 5821 5823 5826 5828 5830 5832 5834 5835 5837 5839 5840 5842 5843 5845 5846 5847 5848 5849 5850 5851 5852 5853 5854 5855 5855 5856 5856 5857 5857 5857 5858 5858
5755 5760 5764 5769 5775 5779 5782 5785 5789 5792 5795 5799 5802 5806 5809 5812 5814 5816 5819 5821 5824 5826 5828 5829 5831 5833 5835 5836 5838 5839 5841 5842 5843 5844 5845 5846 5847 5848 5849 5850 5851 5851 5852 5852 5852 5853 5853 5853 5853
5747 5752 5757 5764 5768 5772 5775 5778 5782 5786 5789 5793 5797 5801 5804 5806 5809 5811 5814 5816 5819 5821 5823 5825 5827 5829 5830 5832 5834 5835 5836 5838 5839 5840 5841 5842 5843 5844 5845 5846 5846 5847 5847 5848 5848 5848 5849 5849 5849
5739 5744 5751 5757 5761 5765 5768 5771 5775 5779 5783 5786 5790 5794 5798 5800 5803 5806 5809 5811 5813 5816 5818 5820 5822 5824 5826 5827 5829 5830 5832 5833 5834 5835 5836 5837 5838 5839 5840 5841 5842 5842 5843 5843 5843 5843 5844 5844 5844
5731 5738 5744 5748 5752 5756 5760 5764 5768 5772 5776 5780 5784 5788 5791 5794 5797 5800 5803 5805 5808 5810 5812 5815 5817 5819 5821 5822 5824 5825 5827 5828 5829 5830 5831 5832 5834 5835 5836 5836 5837 5837 5838 5838 5838 5838 5838 5838 5838
5724 5730 5735 5739 5743 5748 5752 5756 5760 5765 5770 5773 5777 5780 5784 5788 5791 5794 5797 5799 5802 5804 5807 5809 5811 5813 5815 5817 5819 5820 5821 5823 5824 5825 5826 5827 5829 5829 5830 5831 5832 5832 5832 5832 5832 5832 5832 5832 5832
5715 5721 5726 5730 5734 5739 5744 5748 5753 5757 5762 5765 5769 5773 5777 5781 5784 5787 5790 5793 5796 5799 5801 5803 5806 5808 5810 5811 5813 5815 5816 5818 5819 5820 5821 5822 5823 5824 5825 5825 5826 5826 5826 5827 5826 5826 5826 5826 5826
5706 5712 5716 5721 5726 5730 5735 5740 5745 5750 5754 5758 5762 5766 5770 5774 5777 5780 5783 5786 5789 5792 5795 5797 5800 5802 5804 5805 5807 5809 5810 5812 5813 5814 5815 5816 5817 5818 5819 5819 5819 5820 5820 5820 5820 5820 5820 5819 5819
5696 5701 5706 5712 5717 5722 5726 5732 5738 5742 5745 5750 5754 5758 5762 5766 5770 5773 5776 5779 5782 5785 5788 5791 5793 5795 5798 5799 5801 5803 5805 5806 5807 5808 5809 5810 5811 5812 5812 5813 5813 5813 5813 5813 5813 5813 5812 5812 5812
5686 5691 5697 5704 5708 5713 5718 5725 5730 5733 5737 5742 5746 5750 5754 5758 5762 5766 5769 5772 5775 5778 5781 5784 5786 5789 5791 5793 5795 5797 5798 5800 5801 5802 5803 5804 5804 5805 5805 5806 5806 5806 5806 5806 5806 5805 5805 5804 5804
5675 5682 5689 5695 5699 5703 5709 5716 5721 5724 5728 5733 5737 5741 5746 5750 5754 5758 5761 5765 5768 5771 5774 5776 5779 5782 5784 5786 5788 5790 5792 5793 5794 5795 5796 5797 5798 5798 5798 5799 5799 5798 5798 5798 5798 5798 5797 5796 5796
5668 5674 5680 5685 5690 5695 5700 5707 5712 5715 5719 5724 5729 5733 5738 5742 5746 5750 5753 5757 5760 5763 5766 5769 5772 5775 5777 5779 5781 5783 5785 5786 5787 5788 5789 5790 5790 5791 5791 5791 5791 5791 5791 5790 5790 5789 5788 5788 5787
5659 5664 5670 5675 5680 5685 5690 5697 5702 5706 5711 5716 5720 5725 5729 5734 5737 5741 5745 5749 5752 5755 5759 5762 5765 5767 5770 5772 5774 5775 5777 5778 5780 5781 5782 5783 5783 5783 5784 5784 5783 5783 5783 5782 5781 5781 5780 5779 5778
5648 5653 5659 5664 5669 5674 5680 5686 5692 5697 5702 5707 5711 5716 5721 5725 5729 5733 5737 5741 5744 5748 5751 5754 5757 5759 5761 5764 5766 5768 5769 5771 5772 5773 5774 5775 5775 5775 5776 5776 5775 5775 5774 5773 5773 5772 5771 5769 5768
5638 5645 5650 5655 5659 5663 5669 5676 5683 5688 5693 5698 5703 5708 5712 5716 5720 5724 5728 5732 5736 5739 5742 5745 5748 5750 5753 5755 5757 5759 5761 5763 5764 5765 5766 5766 5766 5767 5767 5767 5767 5766 5765 5764 5763 5762 5761 5760 5758
5629 5635 5640 5644 5648 5653 5659 5665 5674 5679 5684 5689 5694 5699 5703 5707 5711 5715 5719 5723 5727 5730 5733 5736 5739 5742 5744 5747 5749 5751 5753 5754 5755 5756 5757 5757 5758 5758 5758 5758 5757 5757 5756 5755 5754 5752 5751 5750 5748
5620 5625 5629 5634 5638 5643 5649 5654 5664 5669 5675 5680 5685 5689 5694 5698 5702 5706 5710 5714 5717 5721 5724 5727 5730 5733 5735 5738 5740 5742 5744 5745 5746 5747 5748 5748 5749 5749 5748 5748 5747 5747 5746 5745 5743 5742 5741 5739 5738
5609 5614 5619 5622 5626 5632 5640 5644 5653 5660 5666 5671 5676 5680 5684 5689 5693 5697 5701 5704 5708 5712 5715 5718 5721 5724 5726 5729 5731 5733 5734 5736 5737 5738 5738 5739 5739 5739 5738 5738 5737 5736 5735 5734 5733 5731 5730 5729 5727
5600 5605 5609 5612 5616 5623 5631 5634 5643 5650 5656 5661 5666 5670 5674 5679 5683 5688 5691 5695 5698 5702 5705 5708 5712 5714 5717 5719 5722 5723 5725 5726 5727 5728 5728 5729 5729 5728 5728 5727 5727 5726 5725 5723 5722 5721 5719 5718 5716
5592 5597 5602 5606 5610 5616 5620 5625 5635 5640 5646 5650 5655 5660 5665 5670 5674 5678 5681 5685 5689 5692 5696 5699 5702 5705 5707 5710 5712 5713 5715 5716 5717 5718 5718 5718 5718 5718 5717 5716 5716 5714 5713 5712 5711 5709 5708 5707 5705
5583 5588 5594 5598 5601 5606 5610 5617 5625 5630 5635 5640 5645 5650 5655 5659 5663 5667 5671 5675 5679 5682 5686 5689 5692 5695 5697 5699 5701 5703 5705 5706 5706 5707 5707 5707 5707 5707 5706 5705 5704 5703 5702 5700 5699 5698 5697 5695 5694
5576 5580 5585 5588 5592 5596 5602 5608 5616 5622 5626 5631 5635 5639 5644 5648 5653 5657 5661 5665 5669 5672 5676 5679 5681 5684 5687 5689 5691 5692 5694 5695 5695 5696 5696 5696 5695 5695 5694 5693 5692 5691 5690 5689 5688 5687 5685 5684 5682
5568 5572 5576 5580 5584 5589 5594 5602 5607 5612 5617 5621 5625 5629 5633 5638 5642 5647 5651 5655 5658 5662 5665 5668 5671 5673 5676 5678 5680 5681 5683 5683 5684 5684 5684 5684 5684 5683 5682 5681 5680 5679 5678 5677 5676 5675 5673 5672 5670
5559 5564 5569 5574 5577 5581 5586 5595 5599 5603 5607 5611 5615 5619 5623 5628 5632 5636 5640 5644 5648 5651 5655 5657 5660 5663 5665 5667 5669 5670 5671 5672 5672 5673 5672 5672 5671 5670 5669 5668 5668 5667 5666 5665 5663 5662 5661 5660 5658